This is the latest recevied weather packets stored in our database for station/object W4SKW. If no packets are shown the sender has not sent any weather packets the latest 1 day(s).
| Time | Temp. | Humidity | Pressure | Rain* | Wind** | Luminosity | Snow |
|---|---|---|---|---|---|---|---|
| 1777996384 | 22.78° C | 60% | 1016.6 hPa | 0 mm | 0 m/s | 687 W/m² | - |
| 1777996080 | 22.22° C | 60% | 1016.7 hPa | 0 mm | 0 m/s | 661 W/m² | - |
| 1777995777 | 21.67° C | 64% | 1016.9 hPa | 0 mm | 0 m/s | 653 W/m² | - |
| 1777995473 | 21.11° C | 67% | 1017.1 hPa | 0 mm | 0 m/s | 640 W/m² | - |
| 1777995170 | 21.11° C | 64% | 1017.1 hPa | 0 mm | 0.45 m/s, 343° | 637 W/m² | - |
| 1777994867 | 20.56° C | 65% | 1017.1 hPa | 0 mm | 0 m/s | 179 W/m² | - |
| 1777994563 | 20.56° C | 67% | 1017.3 hPa | 0 mm | 0.89 m/s, 301° | 371 W/m² | - |
| 1777994258 | 20.56° C | 67% | 1017 hPa | 0 mm | 0 m/s | 140 W/m² | - |
| 1777993956 | 20° C | 66% | 1016.9 hPa | 0 mm | 0 m/s | 197 W/m² | - |
| 1777993652 | 20° C | 66% | 1016.9 hPa | 0 mm | 0 m/s | 197 W/m² | - |
| 1777993349 | 19.44° C | 70% | 1016.9 hPa | 0 mm | 0 m/s | 248 W/m² | - |
| 1777993046 | 19.44° C | 70% | 1016.9 hPa | 0 mm | 0 m/s | 82 W/m² | - |
| 1777992743 | 18.89° C | 74% | 1017.1 hPa | 0 mm | 0 m/s | 102 W/m² | - |
| 1777992440 | 18.89° C | 72% | 1017.1 hPa | 0 mm | 0 m/s | 159 W/m² | - |
| 1777992138 | 18.89° C | 75% | 1017.4 hPa | 0 mm | 0 m/s | 114 W/m² | - |
| 1777991835 | 18.33° C | 72% | 1017.3 hPa | 0 mm | 0 m/s | 111 W/m² | - |
| 1777991532 | 18.33° C | 73% | 1017.3 hPa | 0 mm | 0 m/s | 156 W/m² | - |
| 1777991229 | 17.78° C | 71% | 1017.5 hPa | 0 mm | 0 m/s | 81 W/m² | - |
| 1777990926 | 17.22° C | 73% | 1017.4 hPa | 0 mm | 0 m/s | 166 W/m² | - |
| 1777990624 | 17.22° C | 72% | 1017.4 hPa | 0 mm | 0 m/s | 174 W/m² | - |
| 1777990094 | 16.11° C | 77% | 1017.4 hPa | 0 mm | 0 m/s | 63 W/m² | - |
| 1777989790 | 16.11° C | 77% | 1017.4 hPa | 0 mm | 0 m/s | 63 W/m² | - |
| 1777989488 | 16.11° C | 78% | 1017.1 hPa | 0 mm | 0 m/s | 56 W/m² | - |
| 1777989184 | 15.56° C | 79% | 1017.3 hPa | 0 mm | 0 m/s | 52 W/m² | - |
| 1777988881 | 15.56° C | 79% | 1017.5 hPa | 0 mm | 0 m/s | 50 W/m² | - |
* Rain latest hour (hover to see other rain measurements)
** Current wind speed in m/s (hover to see current wind gust speed)